Frederick, OK

12:48 AM CDT on July 22, 2017 (GMT -0500)
Frederick Municipal

Weather History for KFDR - February, 2013

Change the Weather History Date:

Monday, February 25, 2013

  Actual Average (KLTS) Record (KLTS)
Temperature  
Mean Temperature 39 °F -  
Max Temperature 43 °F 54 °F 63 °F (2015)
Min Temperature 35 °F 31 °F 22 °F (2017)
Degree Days  
Heating Degree Days 26    
Moisture  
Dew Point 33 °F    
Average Humidity 87    
Maximum Humidity 93    
Minimum Humidity 79    
Precipitation  
Precipitation 0.02 in - - ()
Sea Level Pressure  
Sea Level Pressure 29.59 in    
Wind  
Wind Speed 27 mph (NNW)    
Max Wind Speed 34 mph    
Max Gust Speed 45 mph    
Visibility 7 miles    
Events Rain , Snow    
Averages and records for this station are not official NWS values.
T = Trace of Precipitation, MM = Missing Value Source: NWS Daily Summary

Daily Weather History Graph

Daily Weather History Graph

Search for Another Location

Airport or City:

Trip Planner

Search our weather history database for the weather conditions in past years. The results will help you decide how hot, cold, wet, or windy it might be!

Date:

Astronomy

Feb. 25, 2013 Rise Set
Actual Time 7:09 AM CST 6:28 PM CST
Civil Twilight 6:44 AM CST 6:54 PM CST
Nautical Twilight 6:14 AM CST 7:23 PM CST
Astronomical Twilight 5:45 AM CST 7:52 PM CST
Moon 6:40 PM CST (2/25) 6:42 AM CST (2/25)
Length of Visible Light 12h 10m
Length of Day
11h 19m
Full, 100% of the Moon is Illuminated
Feb 25
Full
Feb 25
Full
Mar 4
Last Quarter
Mar 11
New
Mar 19
First Quarter

Hourly Weather History & Observations

Time (CST) Temp. Windchill Dew Point Humidity Pressure Visibility Wind Dir Wind Speed Gust Speed Precip Events Conditions
10:33 AM 42.8 °F 34.5 °F 39.2 °F 87% 29.52 in 6.0 mi NE 18.4 mph 27.6 mph N/A Rain Light Rain
10:53 AM 43.0 °F 33.8 °F 39.9 °F 89% 29.51 in 9.0 mi NNE 23.0 mph 28.8 mph N/A   Overcast
11:53 AM 39.9 °F 28.6 °F 37.0 °F 89% 29.51 in 4.0 mi NNE 28.8 mph - 0.00 in Rain Light Rain
12:22 PM 39.2 °F 28.0 °F 35.6 °F 87% 29.51 in 5.0 mi North 26.5 mph 39.1 mph 0.00 in Rain Light Rain
12:31 PM 39.2 °F 27.0 °F 35.6 °F 87% 29.51 in 4.0 mi North 32.2 mph 38.0 mph 0.00 in Rain Light Rain
12:53 PM 37.9 °F 25.9 °F 35.1 °F 89% 29.50 in 3.0 mi North 28.8 mph - 0.00 in Rain Light Rain
1:07 PM 37.4 °F 25.6 °F 35.6 °F 93% 29.51 in 3.0 mi North 26.5 mph 33.4 mph 0.00 in Rain Light Rain
1:24 PM 37.4 °F 25.9 °F 33.8 °F 87% 29.51 in 5.0 mi North 25.3 mph 35.7 mph 0.00 in   Overcast
1:34 PM 37.4 °F 25.2 °F 33.8 °F 87% 29.51 in 5.0 mi North 28.8 mph 36.8 mph 0.00 in   Overcast
1:53 PM 36.0 °F 23.0 °F 34.0 °F 93% 29.50 in 4.0 mi North 29.9 mph 34.5 mph 0.00 in Snow Light Snow
2:10 PM 35.6 °F 22.7 °F 33.8 °F 93% 29.51 in 2.0 mi North 28.8 mph 38.0 mph 0.00 in Snow Light Snow
2:32 PM 35.6 °F 23.2 °F 32.0 °F 87% 29.53 in 1.5 mi North 26.5 mph 38.0 mph 0.01 in Snow Light Snow
2:53 PM 35.1 °F 22.5 °F 32.0 °F 89% 29.53 in 2.5 mi North 26.5 mph 41.4 mph 0.01 in Snow Light Snow
3:03 PM 35.6 °F 23.2 °F 33.8 °F 93% 29.54 in 4.0 mi North 26.5 mph 34.5 mph 0.00 in Snow Light Snow
3:11 PM 35.6 °F 22.5 °F 32.0 °F 87% 29.54 in 5.0 mi North 29.9 mph 36.8 mph 0.00 in Snow Light Snow
3:36 PM 35.6 °F 22.3 °F 32.0 °F 87% 29.55 in 6.0 mi North 31.1 mph 39.1 mph 0.00 in Snow Light Snow
3:43 PM 35.6 °F 22.3 °F 32.0 °F 87% 29.55 in 7.0 mi North 31.1 mph 41.4 mph 0.00 in Rain Light Freezing Rain
3:53 PM 36.0 °F 22.8 °F 32.0 °F 86% 29.54 in 8.0 mi North 31.1 mph 39.1 mph 0.00 in Rain Light Freezing Rain
4:09 PM 35.6 °F 23.7 °F 32.0 °F 87% 29.56 in 6.0 mi NNW 24.2 mph 38.0 mph 0.00 in Snow Light Snow
4:13 PM 35.6 °F 23.7 °F 33.8 °F 93% 29.56 in 4.0 mi NNW 24.2 mph 34.5 mph 0.00 in Snow Light Snow
4:26 PM 35.6 °F 22.5 °F 32.0 °F 87% 29.56 in 4.0 mi NNW 29.9 mph 39.1 mph 0.00 in Snow Light Snow
4:31 PM 35.6 °F 22.5 °F 32.0 °F 87% 29.57 in 6.0 mi NNW 29.9 mph 39.1 mph 0.00 in Snow Light Snow
4:34 PM 35.6 °F 22.7 °F 32.0 °F 87% 29.57 in 6.0 mi NNW 28.8 mph 36.8 mph 0.00 in Snow Light Snow
4:51 PM 35.6 °F 22.7 °F 32.0 °F 87% 29.57 in 6.0 mi NNW 28.8 mph 39.1 mph 0.00 in Snow Light Snow
4:53 PM 35.1 °F 22.0 °F 32.0 °F 89% 29.55 in 5.0 mi NNW 28.8 mph 39.1 mph 0.00 in Snow Light Snow
5:01 PM 35.6 °F 22.5 °F 32.0 °F 87% 29.57 in 5.0 mi NNW 29.9 mph 36.8 mph 0.00 in Snow Light Snow
5:10 PM 35.6 °F 22.7 °F 32.0 °F 87% 29.58 in 5.0 mi NNW 28.8 mph 34.5 mph 0.00 in Rain Light Freezing Rain
5:19 PM 35.6 °F 23.7 °F 32.0 °F 87% 29.58 in 5.0 mi NNW 24.2 mph 34.5 mph 0.00 in Snow Light Snow
5:30 PM 35.6 °F 23.2 °F 32.0 °F 87% 29.59 in 9.0 mi NW 26.5 mph 35.7 mph 0.00 in Rain Light Freezing Rain
5:37 PM 35.6 °F 23.7 °F 32.0 °F 87% 29.59 in 10.0 mi NNW 24.2 mph 38.0 mph 0.00 in Rain Light Freezing Rain
5:41 PM 35.6 °F 22.3 °F 32.0 °F 87% 29.59 in 10.0 mi NNW 31.1 mph 42.6 mph 0.00 in Rain Light Freezing Rain
5:50 PM 35.6 °F 22.7 °F 32.0 °F 87% 29.60 in 9.0 mi NNW 28.8 mph 40.3 mph 0.00 in Rain Light Freezing Rain
5:53 PM 36.0 °F 23.2 °F 32.0 °F 86% 29.59 in 9.0 mi NNW 28.8 mph 40.3 mph 0.00 in Rain Light Freezing Rain
6:04 PM 35.6 °F 23.0 °F 32.0 °F 87% 29.61 in 6.0 mi NW 27.6 mph 38.0 mph 0.00 in Snow Light Snow
6:13 PM 35.6 °F 22.7 °F 32.0 °F 87% 29.61 in 7.0 mi NNW 28.8 mph 35.7 mph 0.01 in Rain Light Freezing Rain
6:21 PM 35.6 °F 22.7 °F 32.0 °F 87% 29.62 in 7.0 mi NNW 28.8 mph - 0.01 in Snow Light Snow
6:34 PM 35.6 °F 22.7 °F 32.0 °F 87% 29.63 in 9.0 mi NNW 28.8 mph 38.0 mph 0.01 in Rain Light Freezing Rain
6:53 PM 35.1 °F 22.2 °F 32.0 °F 89% 29.64 in 9.0 mi NNW 27.6 mph 40.3 mph 0.01 in Rain Light Freezing Rain
7:26 PM 35.6 °F 21.7 °F 30.2 °F 81% 29.66 in 10.0 mi NNW 34.5 mph 44.9 mph 0.00 in Rain Light Freezing Rain
7:34 PM 35.6 °F 22.5 °F 30.2 °F 81% 29.66 in 10.0 mi NNW 29.9 mph 43.7 mph 0.00 in   Overcast
7:53 PM 36.0 °F 22.6 °F 32.0 °F 86% 29.67 in 10.0 mi NNW 32.2 mph 40.3 mph 0.00 in   Overcast
8:53 PM 35.1 °F 21.2 °F 30.9 °F 85% 29.69 in 10.0 mi NNW 33.4 mph 42.6 mph N/A   Overcast
9:06 PM 35.6 °F 22.3 °F 30.2 °F 81% 29.70 in 10.0 mi NNW 31.1 mph 40.3 mph N/A   Overcast
9:37 PM 35.6 °F 23.2 °F 30.2 °F 81% 29.72 in 10.0 mi NNW 26.5 mph 40.3 mph 0.00 in   Overcast
9:53 PM 36.0 °F 23.2 °F 30.9 °F 82% 29.73 in 9.0 mi NNW 28.8 mph 36.8 mph 0.00 in   Overcast
10:03 PM 35.6 °F 23.7 °F 30.2 °F 81% 29.74 in 10.0 mi NNW 24.2 mph 36.8 mph 0.00 in Rain Light Freezing Rain
10:31 PM 35.6 °F 23.4 °F 30.2 °F 81% 29.74 in 10.0 mi NNW 25.3 mph 33.4 mph 0.00 in   Overcast
10:53 PM 36.0 °F 24.2 °F 30.9 °F 82% 29.76 in 10.0 mi NW 24.2 mph 29.9 mph 0.00 in   Overcast
11:21 PM 35.6 °F 24.0 °F 30.2 °F 81% 29.75 in 10.0 mi NNW 23.0 mph 29.9 mph N/A   Overcast
11:53 PM 36.0 °F 25.0 °F 30.0 °F 79% 29.76 in 10.0 mi NW 20.7 mph - N/A   Mostly Cloudy